Weather in Chernobaevka

Ukraine / Kherson District     46°41′41″N   32°32′42″E
temp.,
°C
wind,
m/s
gust,
m/s
humid.,
%
clouds,
%
prec.,
mm/h
press.,
hPa
HPBL,
m
22 october, fri
fri2200:00+13ssw815835 0.0 1015586
03:00+13ssw714900 0.0 1014470
06:00+12sw512910 0.0 1013335
09:00+14sw47804 0.0 1014332
12:00+19wsw564370 0.0 1015636
15:00+20wsw573895 0.0 1015633
18:00+15sw356195 0.0 101596
21:00+14ssw367297 0.0 1016101
23 october, sat
sat2300:00+13ssw488099 0.0 1016153
03:00+13sw4884100 0.0 1016152
06:00+13wsw2279100 0.0 101636
09:00+15sw0166100 0.0 101667
12:00+17n6544100 0.0 1017893
15:00+14n5666100 0.0 1018506
18:00+12nne3875100 0.0 1019461
21:00+10nw3381100 0.0 102156
24 october, sun
sun2400:00+9nw3675100 0.0 1022121
03:00+7n3555100 0.0 102395
06:00+7nw3549100 0.0 1023105
09:00+8nnw47495 0.0 1024247
12:00+12nw57404 0.0 10241328
15:00+12nw783891 0.0 10242194
18:00+10nnw7947100 0.0 10251417
21:00+6nw486410 0.0 1027247
25 october, mon
mon2500:00+6nnw611585 0.0 1028455
03:00+3nw5117333 0.0 1029311
06:00+3nnw410701 0.0 1031322
09:00+4n59613 0.0 1033547
12:00+8nne56411 0.0 10331112
15:00+10nne44330 0.0 10321373
18:00+6nne34410 0.0 1033147
21:00+4ne33440 0.0 103445
26 october, tue
tue2600:00+3e33440 0.0 103445
03:00+2ene23510 0.0 103434
06:00+2e33540 0.0 103445
09:00+4e36440 0.0 1034221
12:00+9ese45280 0.0 1033829
15:00+11ese34230 0.0 10311074
18:00+8ese33340 0.0 103052
21:00+5ese47725 0.0 1030169